• In Uzbekistan
  • List of Countries
  • For 7 days
  • Water Temperature
  • Satellite Maps
  • Weather Map
  • Weather Widgets
  • user-avatar
    Login

    Hourly Weather Yutz

    Today, 24 January, Wednesday

    Time Temperature Precipitation Wind Pressure Humidity
    00:00 +8°C° 0 mm 5 mps 753 mmHg 94%
    01:00 +8°C° 0.1 mm 5 mps 753 mmHg 94%
    02:00 +8°C° 0.1 mm 5 mps 753 mmHg 94%
    03:00 +8°C° 0.1 mm 5 mps 753 mmHg 94%
    04:00 +8°C° 0.1 mm 5 mps 752 mmHg 94%
    05:00 +8°C° 0.1 mm 5 mps 752 mmHg 94%
    06:00 +9°C° 0.1 mm 5 mps 752 mmHg 94%
    07:00 +9°C° 0.1 mm 5 mps 752 mmHg 94%
    08:00 +9°C° 0.1 mm 6 mps 752 mmHg 94%
    09:00 +9°C° 0.1 mm 6 mps 751 mmHg 93%
    10:00 +9°C° 0 mm 6 mps 751 mmHg 91%
    11:00 +9°C° 0 mm 6 mps 751 mmHg 90%
    12:00 +10°C° 0 mm 6 mps 750 mmHg 88%
    13:00 +10°C° 0 mm 6 mps 750 mmHg 86%
    14:00 +10°C° 0 mm 5 mps 749 mmHg 84%
    15:00 +12°C° 0 mm 5 mps 749 mmHg 82%
    16:00 +10°C° 0 mm 5 mps 748 mmHg 83%
    17:00 +9°C° 0 mm 6 mps 748 mmHg 84%
    18:00 +9°C° 0 mm 6 mps 748 mmHg 85%
    19:00 +9°C° 0 mm 6 mps 747 mmHg 84%
    20:00 +9°C° 0 mm 6 mps 747 mmHg 84%
    21:00 +9°C° 0 mm 6 mps 747 mmHg 83%
    22:00 +9°C° 0 mm 6 mps 747 mmHg 83%
    23:00 +9°C° 0 mm 6 mps 747 mmHg 83%

    Tomorrow, 25 January, Thursday

    Time Temperature Precipitation Wind Pressure Humidity
    00:00 +9°C° 0 mm 6 mps 747 mmHg 84%
    01:00 +8°C° 0.3 mm 6 mps 747 mmHg 85%
    02:00 +8°C° 0.3 mm 6 mps 747 mmHg 87%
    03:00 +8°C° 0.3 mm 6 mps 747 mmHg 88%
    04:00 +8°C° 1.1 mm 6 mps 747 mmHg 90%
    05:00 +8°C° 1.1 mm 6 mps 746 mmHg 91%
    06:00 +8°C° 1.1 mm 5 mps 746 mmHg 93%
    07:00 +8°C° 1.3 mm 5 mps 746 mmHg 93%
    08:00 +8°C° 1.3 mm 4 mps 746 mmHg 93%
    09:00 +7°C° 1.3 mm 4 mps 746 mmHg 93%
    10:00 +7°C° 1.6 mm 4 mps 746 mmHg 93%
    11:00 +7°C° 1.6 mm 4 mps 745 mmHg 92%
    12:00 +7°C° 1.6 mm 4 mps 745 mmHg 91%
    13:00 +7°C° 0.9 mm 4 mps 745 mmHg 92%
    14:00 +8°C° 0.9 mm 3 mps 745 mmHg 92%
    15:00 +8°C° 0.9 mm 2 mps 744 mmHg 93%
    16:00 +7°C° 1.2 mm 2 mps 744 mmHg 94%
    17:00 +7°C° 1.2 mm 2 mps 744 mmHg 95%
    18:00 +8°C° 1.2 mm 1 mps 745 mmHg 95%
    19:00 +7°C° 0.8 mm 1 mps 745 mmHg 95%
    20:00 +6°C° 0.8 mm 2 mps 745 mmHg 95%
    21:00 +6°C° 0.8 mm 2 mps 745 mmHg 94%
    22:00 +6°C° 0.2 mm 2 mps 746 mmHg 95%
    23:00 +5°C° 0.2 mm 2 mps 746 mmHg 95%

    Day after tomorrow, 26 January, Friday

    Time Temperature Precipitation Wind Pressure Humidity
    00:00 +5°C° 0.2 mm 2 mps 746 mmHg 96%
    01:00 +6°C° 0 mm 1 mps 746 mmHg 96%
    02:00 +6°C° 0 mm 1 mps 747 mmHg 96%
    03:00 +6°C° 0 mm 1 mps 747 mmHg 97%
    04:00 +5°C° 0 mm 1 mps 747 mmHg 97%
    05:00 +5°C° 0 mm 1 mps 747 mmHg 97%
    06:00 +5°C° 0 mm 1 mps 747 mmHg 97%
    07:00 +5°C° 0 mm 1 mps 748 mmHg 96%
    08:00 +6°C° 0 mm 1 mps 748 mmHg 96%
    09:00 +6°C° 0 mm 1 mps 748 mmHg 95%
    10:00 +6°C° 0 mm 1 mps 749 mmHg 92%
    11:00 +7°C° 0 mm 1 mps 749 mmHg 88%
    12:00 +8°C° 0 mm 1 mps 749 mmHg 84%
    13:00 +8°C° 0 mm 1 mps 749 mmHg 85%
    14:00 +8°C° 0 mm 1 mps 750 mmHg 85%
    15:00 +8°C° 0 mm 1 mps 750 mmHg 86%
    16:00 +7°C° 0 mm 1 mps 750 mmHg 88%
    17:00 +6°C° 0 mm 1 mps 751 mmHg 90%
    18:00 +5°C° 0 mm 1 mps 751 mmHg 93%
    19:00 +5°C° 0 mm 1 mps 752 mmHg 93%
    20:00 +5°C° 0 mm 1 mps 752 mmHg 93%
    21:00 +5°C° 0 mm 1 mps 753 mmHg 93%
    22:00 +4°C° 0 mm 1 mps 753 mmHg 94%
    23:00 +4°C° 0 mm 1 mps 753 mmHg 94%

    27 January, Saturday

    Time Temperature Precipitation Wind Pressure Humidity
    00:00 +4°C° 0 mm 1 mps 754 mmHg 94%
    01:00 +4°C° 0 mm 1 mps 754 mmHg 94%
    02:00 +3°C° 0 mm 1 mps 754 mmHg 94%
    03:00 +3°C° 0 mm 1 mps 755 mmHg 95%
    04:00 +3°C° 0 mm 1 mps 755 mmHg 94%
    05:00 +3°C° 0 mm 1 mps 755 mmHg 94%
    06:00 +3°C° 0 mm 1 mps 756 mmHg 94%
    07:00 +3°C° 0 mm 1 mps 757 mmHg 92%
    08:00 +4°C° 0 mm 1 mps 757 mmHg 90%
    09:00 +4°C° 0 mm 1 mps 758 mmHg 88%
    10:00 +5°C° 0 mm 0 mps 758 mmHg 84%
    11:00 +6°C° 0 mm 0 mps 758 mmHg 79%
    12:00 +7°C° 0 mm 0 mps 759 mmHg 74%
    13:00 +7°C° 0 mm 0 mps 759 mmHg 75%
    14:00 +7°C° 0 mm 0 mps 759 mmHg 76%
    15:00 +7°C° 0 mm 0 mps 759 mmHg 77%
    16:00 +6°C° 0 mm 0 mps 759 mmHg 80%
    17:00 +4°C° 0 mm 0 mps 760 mmHg 84%
    18:00 +3°C° 0 mm 0 mps 760 mmHg 87%
    19:00 +3°C° 0 mm 0 mps 761 mmHg 88%
    20:00 +4°C° 0 mm 1 mps 761 mmHg 89%
    21:00 +3°C° 0 mm 1 mps 761 mmHg 90%
    22:00 +3°C° 0 mm 1 mps 761 mmHg 90%
    23:00 +3°C° 0 mm 1 mps 761 mmHg 90%

    28 January, Sunday

    Time Temperature Precipitation Wind Pressure Humidity
    00:00 +3°C° 0 mm 1 mps 762 mmHg 91%
    01:00 +3°C° 0 mm 1 mps 761 mmHg 91%
    02:00 +3°C° 0 mm 1 mps 761 mmHg 92%
    03:00 +3°C° 0 mm 1 mps 761 mmHg 92%
    04:00 +2°C° 0 mm 2 mps 762 mmHg 92%
    05:00 +2°C° 0 mm 2 mps 762 mmHg 91%
    06:00 +2°C° 0 mm 2 mps 762 mmHg 91%
    07:00 +2°C° 0 mm 2 mps 762 mmHg 89%
    08:00 +3°C° 0 mm 2 mps 763 mmHg 86%
    09:00 +3°C° 0 mm 3 mps 763 mmHg 84%
    10:00 +3°C° 0 mm 3 mps 763 mmHg 83%
    11:00 +4°C° 0 mm 3 mps 763 mmHg 82%
    12:00 +5°C° 0 mm 3 mps 763 mmHg 81%
    13:00 +5°C° 0 mm 3 mps 763 mmHg 84%
    14:00 +5°C° 0 mm 2 mps 763 mmHg 87%
    15:00 +5°C° 0 mm 2 mps 762 mmHg 90%
    16:00 +5°C° 0 mm 2 mps 763 mmHg 92%
    17:00 +6°C° 0 mm 1 mps 763 mmHg 93%
    18:00 +6°C° 0 mm 1 mps 763 mmHg 95%
    19:00 +6°C° 0 mm 1 mps 763 mmHg 96%
    20:00 +6°C° 0 mm 1 mps 763 mmHg 96%
    21:00 +6°C° 0 mm 1 mps 763 mmHg 96%
    22:00 +6°C° 0 mm 1 mps 763 mmHg 97%
    23:00 +6°C° 0 mm 1 mps 763 mmHg 97%

    29 January, Monday

    Time Temperature Precipitation Wind Pressure Humidity
    00:00 +6°C° 0 mm 1 mps 763 mmHg 97%
    01:00 +6°C° 0 mm 1 mps 763 mmHg 97%
    02:00 +6°C° 0 mm 1 mps 763 mmHg 97%
    03:00 +6°C° 0 mm 1 mps 762 mmHg 97%
    04:00 +7°C° 0 mm 1 mps 762 mmHg 97%
    05:00 +6°C° 0 mm 2 mps 762 mmHg 97%
    06:00 +6°C° 0 mm 2 mps 762 mmHg 97%
    07:00 +6°C° 0 mm 2 mps 762 mmHg 97%
    08:00 +6°C° 0 mm 2 mps 763 mmHg 96%
    09:00 +7°C° 0 mm 2 mps 763 mmHg 96%
    10:00 +7°C° 0 mm 2 mps 762 mmHg 95%
    11:00 +8°C° 0 mm 2 mps 762 mmHg 93%
    12:00 +8°C° 0 mm 2 mps 762 mmHg 92%
    13:00 +8°C° 0 mm 2 mps 761 mmHg 93%
    14:00 +8°C° 0 mm 2 mps 761 mmHg 93%
    15:00 +8°C° 0 mm 2 mps 761 mmHg 94%
    16:00 +8°C° 0 mm 2 mps 760 mmHg 95%
    17:00 +8°C° 0 mm 2 mps 760 mmHg 96%
    18:00 +7°C° 0 mm 2 mps 760 mmHg 97%
    19:00 +7°C° 0 mm 2 mps 760 mmHg 96%
    20:00 +7°C° 0 mm 2 mps 760 mmHg 96%
    21:00 +7°C° 0 mm 2 mps 759 mmHg 96%
    22:00 +7°C° 0 mm 2 mps 759 mmHg 96%
    23:00 +7°C° 0 mm 2 mps 758 mmHg 96%
    Show more